| time (UTC) | temp F | wind direction | speed MPH | gust MPH | rain 1hr in | rain 24hr in | rain mn in | humidity % | barometer mb |
| 20260905104206 | 74 | 135 | 0.0 | 1.0 | 0.00 | 0.00 | 0.00 | 91 | |
| 20260905103701 | 75 | 153 | 1.0 | 2.0 | 0.00 | 0.00 | 0.00 | 92 | |
| 20260905103157 | 75 | 111 | 1.0 | 1.0 | 0.00 | 0.00 | 0.00 | 92 | |
| 20260905102653 | 75 | 64 | 0.0 | 0.0 | 0.00 | 0.00 | 0.00 | 92 | |
| 20260905102149 | 75 | 59 | 1.0 | 1.0 | 0.00 | 0.00 | 0.00 | 92 | |
| 20260905101647 | 74 | 31 | 1.0 | 1.0 | 0.00 | 0.00 | 0.00 | 91 | |
| 20260905101145 | 75 | 9 | 1.0 | 2.0 | 0.00 | 0.00 | 0.00 | 91 | |
| 20260905100641 | 75 | 163 | 0.0 | 0.0 | 0.00 | 0.00 | 0.00 | 91 | |
| 20260905100131 | 75 | 169 | 1.0 | 1.0 | 0.00 | 0.00 | 0.00 | 90 | |
| 20260905095631 | 75 | 167 | 1.0 | 3.0 | 0.00 | 0.00 | 0.00 | 90 | |
| 20260905095126 | 75 | 159 | 0.0 | 1.0 | 0.00 | 0.00 | 0.00 | 91 | |
| 20260905094621 | 75 | 133 | 1.0 | 1.0 | 0.00 | 0.00 | 0.00 | 91 | |
| 20260905094120 | 75 | 182 | 2.0 | 3.0 | 0.00 | 0.00 | 0.00 | 91 | |
| 20260905093620 | 75 | 204 | 2.0 | 2.0 | 0.00 | 0.00 | 0.00 | 91 | |
| 20260905093117 | 75 | 227 | 3.0 | 3.0 | 0.00 | 0.00 | 0.00 | 91 | |
| 20260905092616 | 75 | 233 | 1.0 | 1.0 | 0.00 | 0.00 | 0.00 | 90 | |
| 20260905092113 | 75 | 240 | 1.0 | 1.0 | 0.00 | 0.00 | 0.00 | 90 | |
| 20260905091612 | 75 | 196 | 1.0 | 1.0 | 0.00 | 0.00 | 0.00 | 90 | |
| 20260905091106 | 75 | 179 | 1.0 | 2.0 | 0.00 | 0.00 | 0.00 | 90 | |
| 20260905090601 | 75 | 183 | 2.0 | 3.0 | 0.00 | 0.00 | 0.00 | 90 | |
| 20260905090056 | 76 | 211 | 2.0 | 5.0 | 0.00 | 0.00 | 0.00 | 90 | |
| 20260905085555 | 76 | 176 | 2.0 | 3.0 | 0.00 | 0.00 | 0.00 | 89 | |
| 20260905085050 | 76 | 179 | 3.0 | 5.0 | 0.00 | 0.00 | 0.00 | 89 | |
| 20260905084549 | 76 | 185 | 3.0 | 6.0 | 0.00 | 0.00 | 0.00 | 89 | |
| 20260905084045 | 76 | 167 | 3.0 | 6.0 | 0.00 | 0.00 | 0.00 | 89 | |
| 20260905083539 | 76 | 179 | 3.0 | 7.0 | 0.00 | 0.00 | 0.00 | 89 | |
| 20260905083036 | 76 | 172 | 3.0 | 6.0 | 0.00 | 0.00 | 0.00 | 89 | |
| 20260905082531 | 76 | 186 | 2.0 | 5.0 | 0.00 | 0.00 | 0.00 | 88 | |
| 20260905082027 | 76 | 176 | 2.0 | 5.0 | 0.00 | 0.00 | 0.00 | 88 | |
| 20260905081526 | 76 | 165 | 3.0 | 5.0 | 0.00 | 0.00 | 0.00 | 88 | |
| 20260905081021 | 76 | 162 | 2.0 | 3.0 | 0.00 | 0.00 | 0.00 | 88 | |
| 20260905080520 | 76 | 171 | 1.0 | 7.0 | 0.00 | 0.00 | 0.00 | 88 | |
| 20260905080016 | 76 | 162 | 5.0 | 6.0 | 0.00 | 0.00 | 0.00 | 87 | |
| 20260905075509 | 76 | 141 | 3.0 | 6.0 | 0.00 | 0.00 | 0.00 | 87 | |
| 20260905075009 | 76 | 167 | 6.0 | 7.0 | 0.00 | 0.00 | 0.00 | 87 | |
| 20260905074504 | 77 | 174 | 5.0 | 7.0 | 0.00 | 0.00 | 0.00 | 87 | |
| 20260905073959 | 77 | 208 | 5.0 | 7.0 | 0.00 | 0.00 | 0.00 | 87 | |
| 20260905073454 | 77 | 201 | 3.0 | 6.0 | 0.00 | 0.00 | 0.00 | 86 | |
| 20260905072949 | 77 | 192 | 3.0 | 3.0 | 0.00 | 0.00 | 0.00 | 86 | |
| 20260905072444 | 77 | 193 | 5.0 | 7.0 | 0.00 | 0.00 | 0.00 | 86 | |
| 20260905071940 | 77 | 136 | 1.0 | 3.0 | 0.00 | 0.00 | 0.00 | 86 | |
| 20260905071437 | 77 | 144 | 2.0 | 3.0 | 0.00 | 0.00 | 0.00 | 86 | |
| 20260905070936 | 77 | 201 | 1.0 | 3.0 | 0.00 | 0.00 | 0.00 | 85 | |
| 20260905070432 | 77 | 179 | 1.0 | 3.0 | 0.00 | 0.00 | 0.00 | 85 | |
| 20260905065932 | 77 | 151 | 1.0 | 2.0 | 0.00 | 0.00 | 0.00 | 85 | |
| 20260905065430 | 77 | 167 | 3.0 | 3.0 | 0.00 | 0.00 | 0.00 | 84 | |
| 20260905064925 | 77 | 151 | 3.0 | 3.0 | 0.00 | 0.00 | 0.00 | 84 | |
| 20260905064421 | 77 | 200 | 3.0 | 5.0 | 0.00 | 0.00 | 0.00 | 84 | |
| 20260905063921 | 77 | 208 | 3.0 | 6.0 | 0.00 | 0.00 | 0.00 | 84 | |
| 20260905063415 | 78 | 186 | 3.0 | 5.0 | 0.00 | 0.00 | 0.00 | 83 | |
| 20260905062912 | 78 | 186 | 4.0 | 5.0 | 0.00 | 0.00 | 0.00 | 83 | |
| 20260905062406 | 78 | 190 | 3.0 | 7.0 | 0.00 | 0.00 | 0.00 | 83 | |
| 20260905061901 | 78 | 183 | 6.0 | 7.0 | 0.00 | 0.00 | 0.00 | 82 | |
| 20260905061401 | 78 | 166 | 3.0 | 6.0 | 0.00 | 0.00 | 0.00 | 82 | |
| 20260905060855 | 78 | 196 | 5.0 | 8.0 | 0.00 | 0.00 | 0.00 | 82 | |
| 20260905060352 | 78 | 177 | 5.0 | 7.0 | 0.00 | 0.00 | 0.00 | 82 | |
| 20260905055850 | 79 | 200 | 4.0 | 6.0 | 0.00 | 0.00 | 0.00 | 81 | |
| 20260905055346 | 79 | 189 | 7.0 | 9.0 | 0.00 | 0.00 | 0.00 | 81 | |
| 20260905054845 | 79 | 196 | 2.0 | 6.0 | 0.00 | 0.00 | 0.00 | 81 | |
| 20260905054342 | 79 | 107 | 3.0 | 7.0 | 0.00 | 0.00 | 0.00 | 81 | |
| 20260905053841 | 79 | 148 | 3.0 | 6.0 | 0.00 | 0.00 | 0.00 | 81 | |
| 20260905053342 | 79 | 157 | 6.0 | 8.0 | 0.00 | 0.00 | 0.00 | 80 | |
| 20260905052837 | 79 | 167 | 4.0 | 7.0 | 0.00 | 0.00 | 0.00 | 80 | |
| 20260905052331 | 79 | 189 | 2.0 | 6.0 | 0.00 | 0.00 | 0.00 | 79 | |
| 20260905051830 | 79 | 186 | 4.0 | 8.0 | 0.00 | 0.00 | 0.00 | 79 | |
| 20260905051326 | 80 | 184 | 3.0 | 5.0 | 0.00 | 0.00 | 0.00 | 79 | |
| 20260905050823 | 80 | 160 | 3.0 | 7.0 | 0.00 | 0.00 | 0.00 | 79 | |
| 20260905050319 | 80 | 181 | 1.0 | 5.0 | 0.00 | 0.00 | 0.00 | 78 | |
| 20260905045814 | 80 | 184 | 5.0 | 7.0 | 0.00 | 0.00 | 0.00 | 78 | |
| 20260905045309 | 80 | 186 | 2.0 | 5.0 | 0.00 | 0.00 | 0.00 | 78 | |
| 20260905044805 | 80 | 197 | 2.0 | 5.0 | 0.00 | 0.00 | 0.00 | 77 | |
| 20260905044300 | 80 | 156 | 3.0 | 9.0 | 0.00 | 0.00 | 0.00 | 77 | |
| 20260905043758 | 81 | 139 | 5.0 | 7.0 | 0.00 | 0.00 | 0.00 | 76 | |
| 20260905043254 | 81 | 147 | 0.0 | 7.0 | 0.00 | 0.00 | 0.00 | 76 | |
| 20260905042753 | 81 | 142 | 4.0 | 7.0 | 0.00 | 0.00 | 0.00 | 76 | |
| 20260905042253 | 81 | 161 | 5.0 | 9.0 | 0.00 | 0.00 | 0.00 | 75 | |
| 20260905041748 | 81 | 141 | 4.0 | 8.0 | 0.00 | 0.00 | 0.00 | 75 | |
| 20260905041244 | 81 | 166 | 6.0 | 8.0 | 0.00 | 0.00 | 0.00 | 75 | |
| 20260905040738 | 81 | 142 | 7.0 | 10.0 | 0.00 | 0.00 | 0.00 | 75 | |
| 20260905040237 | 81 | 123 | 3.0 | 8.0 | 0.00 | 0.00 | 0.00 | 74 | |
| 20260905035732 | 81 | 126 | 7.0 | 9.0 | 0.00 | 0.00 | 0.00 | 74 | |
| 20260905035228 | 81 | 136 | 7.0 | 9.0 | 0.00 | 0.00 | 0.00 | 73 | |
| 20260905034725 | 82 | 136 | 7.0 | 10.0 | 0.00 | 0.00 | 0.00 | 73 | |
| 20260905034224 | 82 | 132 | 6.0 | 9.0 | 0.00 | 0.00 | 0.00 | 72 | |
| 20260905033723 | 82 | 159 | 6.0 | 11.0 | 0.00 | 0.00 | 0.00 | 72 | |
| 20260905033219 | 82 | 160 | 5.0 | 8.0 | 0.00 | 0.00 | 0.00 | 71 | |
| 20260905032718 | 82 | 131 | 6.0 | 8.0 | 0.00 | 0.00 | 0.00 | 70 | |
| 20260905032214 | 82 | 137 | 5.0 | 6.0 | 0.00 | 0.00 | 0.00 | 69 | |
| 20260905031709 | 82 | 122 | 3.0 | 6.0 | 0.00 | 0.00 | 0.00 | 69 | |
| 20260905031204 | 82 | 135 | 2.0 | 3.0 | 0.00 | 0.00 | 0.00 | 69 | |
| 20260905030659 | 82 | 137 | 3.0 | 5.0 | 0.00 | 0.00 | 0.00 | 68 | |
| 20260905030154 | 82 | 148 | 3.0 | 5.0 | 0.00 | 0.00 | 0.00 | 68 | |
| 20260905025649 | 82 | 123 | 4.0 | 6.0 | 0.00 | 0.00 | 0.00 | 68 | |
| 20260905025145 | 82 | 145 | 4.0 | 5.0 | 0.00 | 0.00 | 0.00 | 68 | |
| 20260905024641 | 82 | 128 | 1.0 | 3.0 | 0.00 | 0.00 | 0.00 | 68 | |
| 20260905024136 | 82 | 106 | 1.0 | 2.0 | 0.00 | 0.00 | 0.00 | 68 | |
| 20260905023631 | 82 | 98 | 3.0 | 3.0 | 0.00 | 0.00 | 0.00 | 68 | |
| 20260905023131 | 82 | 106 | 4.0 | 6.0 | 0.00 | 0.00 | 0.00 | 67 | |
| 20260905022630 | 82 | 113 | 3.0 | 6.0 | 0.00 | 0.00 | 0.00 | 67 | |
| 20260905022125 | 83 | 137 | 2.0 | 3.0 | 0.00 | 0.00 | 0.00 | 67 | |
| 20260905021620 | 83 | 118 | 3.0 | 6.0 | 0.00 | 0.00 | 0.00 | 66 | |
| 20260905021116 | 83 | 129 | 3.0 | 6.0 | 0.00 | 0.00 | 0.00 | 66 | |
| 20260905020615 | 83 | 112 | 3.0 | 5.0 | 0.00 | 0.00 | 0.00 | 65 | |
| 20260905020110 | 83 | 113 | 5.0 | 5.0 | 0.00 | 0.00 | 0.00 | 65 | |
| 20260905015609 | 84 | 110 | 3.0 | 5.0 | 0.00 | 0.00 | 0.00 | 65 | |
| 20260905015103 | 84 | 128 | 5.0 | 6.0 | 0.00 | 0.00 | 0.00 | 65 | |
| 20260905014557 | 84 | 147 | 5.0 | 7.0 | 0.00 | 0.00 | 0.00 | 64 | |
| 20260905014053 | 84 | 135 | 6.0 | 8.0 | 0.00 | 0.00 | 0.00 | 64 | |
| 20260905013549 | 84 | 143 | 7.0 | 9.0 | 0.00 | 0.00 | 0.00 | 64 | |
| 20260905013045 | 84 | 155 | 5.0 | 8.0 | 0.00 | 0.00 | 0.00 | 64 | |
| 20260905012544 | 85 | 135 | 4.0 | 7.0 | 0.00 | 0.00 | 0.00 | 63 | |
| 20260905012042 | 85 | 111 | 5.0 | 8.0 | 0.00 | 0.00 | 0.00 | 62 | |
| 20260905011537 | 85 | 94 | 6.0 | 7.0 | 0.00 | 0.00 | 0.00 | 62 | |
| 20260905011032 | 86 | 141 | 6.0 | 8.0 | 0.00 | 0.00 | 0.00 | 61 | |
| 20260905010527 | 86 | 118 | 5.0 | 9.0 | 0.00 | 0.00 | 0.00 | 61 | |
| 20260905010024 | 86 | 155 | 7.0 | 10.0 | 0.00 | 0.00 | 0.00 | 61 | |
| 20260905005519 | 86 | 135 | 7.0 | 10.0 | 0.00 | 0.00 | 0.00 | 62 | |
| 20260905005015 | 86 | 161 | 6.0 | 9.0 | 0.00 | 0.00 | 0.00 | 62 | |
| 20260905004514 | 87 | 120 | 10.0 | 13.0 | 0.00 | 0.00 | 0.00 | 62 | |
| 20260905004004 | 87 | 125 | 10.0 | 11.0 | 0.00 | 0.00 | 0.00 | 61 | |
| 20260905003500 | 87 | 123 | 7.0 | 10.0 | 0.00 | 0.00 | 0.00 | 60 | |
| 20260905002955 | 88 | 150 | 11.0 | 14.0 | 0.00 | 0.00 | 0.00 | 59 | |
| 20260905002450 | 88 | 148 | 9.0 | 11.0 | 0.00 | 0.00 | 0.00 | 57 | |
| 20260905001949 | 89 | 169 | 5.0 | 11.0 | 0.00 | 0.00 | 0.00 | 55 | |
| 20260905001444 | 89 | 139 | 7.0 | 10.0 | 0.00 | 0.00 | 0.00 | 54 | |
| 20260905000939 | 89 | 121 | 6.0 | 13.0 | 0.00 | 0.00 | 0.00 | 53 | |
| 20260905000435 | 90 | 152 | 7.0 | 14.0 | 0.00 | 0.00 | 0.00 | 52 | |
| 20260904235930 | 90 | 123 | 8.0 | 13.0 | 0.00 | 0.00 | 0.00 | 51 | |
| 20260904235426 | 90 | 148 | 7.0 | 11.0 | 0.00 | 0.00 | 0.00 | 49 | |
| 20260904234925 | 90 | 135 | 5.0 | 9.0 | 0.00 | 0.00 | 0.00 | 48 | |
| 20260904234420 | 90 | 111 | 6.0 | 10.0 | 0.00 | 0.00 | 0.00 | 46 | |
| 20260904233916 | 91 | 123 | 15.0 | 17.0 | 0.00 | 0.00 | 0.00 | 45 | |
| 20260904233411 | 91 | 150 | 7.0 | 10.0 | 0.00 | 0.00 | 0.00 | 42 | |
| 20260904232908 | 92 | 156 | 7.0 | 15.0 | 0.00 | 0.00 | 0.00 | 41 | |
| 20260904232404 | 91 | 149 | 3.0 | 10.0 | 0.00 | 0.00 | 0.00 | 40 | |
| 20260904231900 | 91 | 158 | 7.0 | 13.0 | 0.00 | 0.00 | 0.00 | 40 | |
| 20260904231354 | 91 | 126 | 9.0 | 14.0 | 0.00 | 0.00 | 0.00 | 40 | |
| 20260904230849 | 91 | 139 | 11.0 | 14.0 | 0.00 | 0.00 | 0.00 | 41 | |
| 20260904230348 | 91 | 152 | 9.0 | 11.0 | 0.00 | 0.00 | 0.00 | 41 | |
| 20260904225843 | 92 | 195 | 4.0 | 6.0 | 0.00 | 0.00 | 0.00 | 43 | |
| 20260904225342 | 92 | 206 | 4.0 | 10.0 | 0.00 | 0.00 | 0.00 | 43 | |
| 20260904224841 | 93 | 208 | 6.0 | 13.0 | 0.00 | 0.00 | 0.00 | 43 | |
| 20260904224337 | 92 | 162 | 5.0 | 7.0 | 0.00 | 0.00 | 0.00 | 46 | |
| 20260904223836 | 92 | 115 | 2.0 | 10.0 | 0.00 | 0.00 | 0.00 | 48 | |
| 20260904223331 | 92 | 100 | 9.0 | 11.0 | 0.00 | 0.00 | 0.00 | 47 | |
| 20260904222827 | 91 | 195 | 4.0 | 10.0 | 0.00 | 0.00 | 0.00 | 48 | |
| 20260904222328 | 92 | 90 | 7.0 | 13.0 | 0.00 | 0.00 | 0.00 | 47 | |
| 20260904221827 | 92 | 197 | 4.0 | 8.0 | 0.00 | 0.00 | 0.00 | 47 | |
| 20260904221327 | 91 | 182 | 1.0 | 10.0 | 0.00 | 0.00 | 0.00 | 49 | |
| 20260904220823 | 91 | 184 | 9.0 | 10.0 | 0.00 | 0.00 | 0.00 | 49 | |
| 20260904220322 | 91 | 147 | 5.0 | 10.0 | 0.00 | 0.00 | 0.00 | 48 | |
| 20260904215817 | 92 | 177 | 6.0 | 10.0 | 0.00 | 0.00 | 0.00 | 44 | |
| 20260904215313 | 92 | 206 | 7.0 | 9.0 | 0.00 | 0.00 | 0.00 | 45 | |
| 20260904214809 | 92 | 220 | 7.0 | 11.0 | 0.00 | 0.00 | 0.00 | 45 | |
| 20260904214304 | 92 | 132 | 12.0 | 16.0 | 0.00 | 0.00 | 0.00 | 45 | |
| 20260904213801 | 92 | 171 | 8.0 | 15.0 | 0.00 | 0.00 | 0.00 | 47 | |
| 20260904213258 | 91 | 153 | 8.0 | 11.0 | 0.00 | 0.00 | 0.00 | 44 | |
| 20260904212754 | 92 | 124 | 12.0 | 16.0 | 0.00 | 0.00 | 0.00 | 44 | |
| 20260904212254 | 92 | 171 | 8.0 | 11.0 | 0.00 | 0.00 | 0.00 | 45 | |
| 20260904211749 | 93 | 178 | 10.0 | 13.0 | 0.00 | 0.00 | 0.00 | 46 | |
| 20260904211243 | 92 | 206 | 7.0 | 8.0 | 0.00 | 0.00 | 0.00 | 48 | |
| 20260904210738 | 92 | 168 | 9.0 | 14.0 | 0.00 | 0.00 | 0.00 | 46 | |
| 20260904210233 | 92 | 180 | 9.0 | 11.0 | 0.00 | 0.00 | 0.00 | 50 | |
| 20260904205729 | 93 | 179 | 7.0 | 14.0 | 0.00 | 0.00 | 0.00 | 50 | |
| 20260904205219 | 92 | 184 | 8.0 | 11.0 | 0.00 | 0.00 | 0.00 | 52 | |
| 20260904204716 | 91 | 166 | 4.0 | 7.0 | 0.00 | 0.00 | 0.00 | 53 | |
| 20260904204211 | 91 | 111 | 8.0 | 11.0 | 0.00 | 0.00 | 0.00 | 49 | |
| 20260904203707 | 90 | 187 | 8.0 | 14.0 | 0.00 | 0.00 | 0.00 | 54 | |
| 20260904203204 | 90 | 106 | 11.0 | 13.0 | 0.00 | 0.00 | 0.00 | 56 | |
| 20260904202659 | 91 | 151 | 11.0 | 15.0 | 0.00 | 0.00 | 0.00 | 56 | |
| 20260904202155 | 90 | 121 | 4.0 | 9.0 | 0.00 | 0.00 | 0.00 | 58 | |
| 20260904201650 | 90 | 171 | 9.0 | 15.0 | 0.00 | 0.00 | 0.00 | 59 | |
| 20260904201145 | 89 | 126 | 9.0 | 15.0 | 0.00 | 0.00 | 0.00 | 59 | |
| 20260904200644 | 89 | 146 | 8.0 | 13.0 | 0.00 | 0.00 | 0.00 | 61 | |
| 20260904200139 | 90 | 117 | 8.0 | 11.0 | 0.00 | 0.00 | 0.00 | 59 | |
| 20260904195638 | 90 | 165 | 7.0 | 9.0 | 0.00 | 0.00 | 0.00 | 59 | |
| 20260904195137 | 90 | 99 | 5.0 | 16.0 | 0.00 | 0.00 | 0.00 | 59 | |
| 20260904194631 | 89 | 135 | 7.0 | 17.0 | 0.00 | 0.00 | 0.00 | 61 | |
| 20260904194126 | 88 | 90 | 8.0 | 14.0 | 0.00 | 0.00 | 0.00 | 61 | |
| 20260904193621 | 89 | 89 | 9.0 | 10.0 | 0.00 | 0.00 | 0.00 | 62 | |
| 20260904193118 | 89 | 153 | 11.0 | 13.0 | 0.00 | 0.00 | 0.00 | 60 | |
| 20260904192617 | 88 | 132 | 9.0 | 13.0 | 0.00 | 0.00 | 0.00 | 61 | |
| 20260904192113 | 88 | 90 | 3.0 | 10.0 | 0.00 | 0.00 | 0.00 | 62 | |
| 20260904191609 | 89 | 141 | 10.0 | 11.0 | 0.00 | 0.00 | 0.00 | 61 | |
| 20260904191106 | 89 | 102 | 11.0 | 14.0 | 0.00 | 0.00 | 0.00 | 61 | |
| 20260904190601 | 89 | 146 | 6.0 | 9.0 | 0.00 | 0.00 | 0.00 | 61 | |
| 20260904190057 | 89 | 102 | 10.0 | 13.0 | 0.00 | 0.00 | 0.00 | 61 | |
| 20260904185554 | 89 | 131 | 5.0 | 15.0 | 0.00 | 0.00 | 0.00 | 59 | |
| 20260904185048 | 89 | 110 | 2.0 | 14.0 | 0.00 | 0.00 | 0.00 | 61 | |
| 20260904184542 | 89 | 185 | 6.0 | 14.0 | 0.00 | 0.00 | 0.00 | 61 | |
| 20260904184037 | 90 | 189 | 6.0 | 10.0 | 0.00 | 0.00 | 0.00 | 58 | |
| 20260904183532 | 88 | 131 | 5.0 | 15.0 | 0.00 | 0.00 | 0.00 | 62 | |
| 20260904183028 | 88 | 141 | 9.0 | 15.0 | 0.00 | 0.00 | 0.00 | 64 | |
| 20260904182523 | 87 | 179 | 5.0 | 13.0 | 0.00 | 0.00 | 0.00 | 65 | |
| 20260904182023 | 88 | 114 | 7.0 | 10.0 | 0.00 | 0.00 | 0.00 | 64 | |
| 20260904181519 | 88 | 131 | 7.0 | 13.0 | 0.00 | 0.00 | 0.00 | 61 | |
| 20260904181019 | 86 | 149 | 4.0 | 7.0 | 0.00 | 0.00 | 0.00 | 68 | |
| 20260904180513 | 86 | 141 | 7.0 | 10.0 | 0.00 | 0.00 | 0.00 | 66 | |
| 20260904180008 | 86 | 150 | 8.0 | 9.0 | 0.00 | 0.00 | 0.00 | 67 | |
| 20260904175503 | 86 | 124 | 6.0 | 10.0 | 0.00 | 0.00 | 0.00 | 68 | |
| 20260904175001 | 86 | 199 | 5.0 | 6.0 | 0.00 | 0.00 | 0.00 | 67 | |
| 20260904174456 | 86 | 153 | 8.0 | 9.0 | 0.00 | 0.00 | 0.00 | 69 | |
| 20260904173954 | 85 | 89 | 3.0 | 6.0 | 0.00 | 0.00 | 0.00 | 69 | |
| 20260904173453 | 86 | 154 | 8.0 | 10.0 | 0.00 | 0.00 | 0.00 | 68 | |
| 20260904172949 | 86 | 135 | 7.0 | 8.0 | 0.00 | 0.00 | 0.00 | 67 | |
| 20260904172444 | 86 | 138 | 7.0 | 10.0 | 0.00 | 0.00 | 0.00 | 68 | |
| 20260904171944 | 86 | 189 | 7.0 | 9.0 | 0.00 | 0.00 | 0.00 | 68 | |
| 20260904171439 | 86 | 167 | 5.0 | 10.0 | 0.00 | 0.00 | 0.00 | 69 | |
| 20260904170936 | 86 | 183 | 7.0 | 10.0 | 0.00 | 0.00 | 0.00 | 68 | |
| 20260904170430 | 85 | 129 | 3.0 | 6.0 | 0.00 | 0.00 | 0.00 | 71 | |
| 20260904165926 | 85 | 190 | 7.0 | 9.0 | 0.00 | 0.00 | 0.00 | 70 | |
| 20260904165425 | 85 | 255 | 7.0 | 8.0 | 0.00 | 0.00 | 0.00 | 71 | |
| 20260904164924 | 84 | 247 | 7.0 | 9.0 | 0.00 | 0.00 | 0.00 | 73 | |
| 20260904164424 | 83 | 208 | 8.0 | 10.0 | 0.00 | 0.00 | 0.00 | 73 | |
| 20260904163921 | 83 | 201 | 9.0 | 13.0 | 0.00 | 0.00 | 0.00 | 73 | |
| 20260904163420 | 83 | 210 | 7.0 | 11.0 | 0.00 | 0.00 | 0.00 | 74 | |
| 20260904162920 | 83 | 201 | 9.0 | 10.0 | 0.00 | 0.00 | 0.00 | 74 | |
| 20260904162415 | 83 | 182 | 5.0 | 7.0 | 0.00 | 0.00 | 0.00 | 75 | |
| 20260904161911 | 83 | 249 | 5.0 | 8.0 | 0.00 | 0.00 | 0.00 | 75 | |
| 20260904161406 | 83 | 178 | 7.0 | 11.0 | 0.00 | 0.00 | 0.00 | 75 | |
| 20260904160902 | 83 | 181 | 3.0 | 5.0 | 0.00 | 0.00 | 0.00 | 76 | |
| 20260904160356 | 82 | 205 | 6.0 | 8.0 | 0.00 | 0.00 | 0.00 | 78 | |
| 20260904155851 | 82 | 233 | 5.0 | 8.0 | 0.00 | 0.00 | 0.00 | 77 | |
| 20260904155346 | 82 | 189 | 3.0 | 8.0 | 0.00 | 0.00 | 0.00 | 77 | |
| 20260904154844 | 82 | 224 | 5.0 | 10.0 | 0.00 | 0.00 | 0.00 | 79 | |
| 20260904154339 | 82 | 227 | 3.0 | 10.0 | 0.00 | 0.00 | 0.00 | 79 | |
| 20260904153835 | 82 | 232 | 5.0 | 7.0 | 0.00 | 0.00 | 0.00 | 80 | |
| 20260904153330 | 81 | 214 | 6.0 | 7.0 | 0.00 | 0.00 | 0.00 | 80 | |
| 20260904152827 | 81 | 145 | 7.0 | 9.0 | 0.00 | 0.00 | 0.00 | 81 | |
| 20260904152326 | 81 | 224 | 5.0 | 8.0 | 0.00 | 0.00 | 0.00 | 81 | |
| 20260904151822 | 81 | 201 | 6.0 | 8.0 | 0.00 | 0.00 | 0.00 | 82 | |
| 20260904151321 | 80 | 178 | 6.0 | 8.0 | 0.00 | 0.00 | 0.00 | 83 | |
| 20260904150817 | 80 | 192 | 7.0 | 8.0 | 0.00 | 0.00 | 0.00 | 83 | |
| 20260904150312 | 80 | 180 | 3.0 | 5.0 | 0.00 | 0.00 | 0.00 | 85 | |
| 20260904145809 | 80 | 184 | 3.0 | 9.0 | 0.00 | 0.00 | 0.00 | 85 | |
| 20260904145306 | 80 | 178 | 2.0 | 7.0 | 0.00 | 0.00 | 0.00 | 85 | |
| 20260904144801 | 80 | 201 | 3.0 | 6.0 | 0.00 | 0.00 | 0.00 | 85 | |
| 20260904144256 | 80 | 199 | 3.0 | 5.0 | 0.00 | 0.00 | 0.00 | 86 | |
| 20260904143752 | 80 | 204 | 2.0 | 5.0 | 0.00 | 0.00 | 0.00 | 87 | |
| 20260904143249 | 80 | 121 | 3.0 | 6.0 | 0.00 | 0.00 | 0.00 | 86 | |
| 20260904142745 | 79 | 161 | 5.0 | 8.0 | 0.00 | 0.00 | 0.00 | 87 | |
| 20260904142241 | 79 | 179 | 5.0 | 7.0 | 0.00 | 0.00 | 0.00 | 88 | |
| 20260904141740 | 79 | 166 | 6.0 | 8.0 | 0.00 | 0.00 | 0.00 | 88 | |
| 20260904141236 | 79 | 195 | 4.0 | 6.0 | 0.00 | 0.00 | 0.00 | 89 | |
| 20260904140731 | 79 | 154 | 3.0 | 8.0 | 0.00 | 0.00 | 0.00 | 89 | |
| 20260904140227 | 79 | 124 | 2.0 | 5.0 | 0.00 | 0.00 | 0.00 | 89 | |
| 20260904135725 | 78 | 143 | 4.0 | 6.0 | 0.00 | 0.00 | 0.00 | 89 | |
| 20260904135221 | 78 | 198 | 4.0 | 6.0 | 0.00 | 0.00 | 0.00 | 89 | |
| 20260904134717 | 78 | 133 | 5.0 | 6.0 | 0.00 | 0.00 | 0.00 | 89 | |
| 20260904134216 | 78 | 128 | 2.0 | 3.0 | 0.00 | 0.00 | 0.00 | 90 | |
| 20260904133711 | 78 | 125 | 3.0 | 6.0 | 0.00 | 0.00 | 0.00 | 90 | |
| 20260904133208 | 78 | 154 | 7.0 | 9.0 | 0.00 | 0.00 | 0.00 | 90 | |
| 20260904132706 | 78 | 136 | 2.0 | 8.0 | 0.00 | 0.00 | 0.00 | 91 | |
| 20260904132202 | 78 | 144 | 4.0 | 5.0 | 0.00 | 0.00 | 0.00 | 91 | |
| 20260904131701 | 78 | 133 | 4.0 | 8.0 | 0.00 | 0.00 | 0.00 | 90 | |
| 20260904131157 | 78 | 121 | 2.0 | 6.0 | 0.00 | 0.00 | 0.00 | 90 | |
| 20260904130657 | 78 | 132 | 8.0 | 9.0 | 0.00 | 0.00 | 0.00 | 90 | |
| 20260904130156 | 78 | 132 | 3.0 | 6.0 | 0.00 | 0.00 | 0.00 | 90 | |
| 20260904125653 | 78 | 138 | 8.0 | 10.0 | 0.00 | 0.00 | 0.00 | 91 | |
| 20260904125148 | 78 | 168 | 7.0 | 8.0 | 0.00 | 0.00 | 0.00 | 91 | |
| 20260904124643 | 77 | 178 | 5.0 | 7.0 | 0.00 | 0.00 | 0.00 | 91 | |
| 20260904124139 | 77 | 193 | 5.0 | 6.0 | 0.00 | 0.00 | 0.00 | 92 | |
| 20260904123639 | 77 | 200 | 3.0 | 6.0 | 0.00 | 0.00 | 0.00 | 92 | |
| 20260904123135 | 77 | 174 | 3.0 | 5.0 | 0.00 | 0.00 | 0.00 | 92 | |
| 20260904122635 | 77 | 162 | 6.0 | 9.0 | 0.00 | 0.00 | 0.00 | 92 | |
| 20260904122130 | 77 | 174 | 4.0 | 6.0 | 0.00 | 0.00 | 0.00 | 91 | |
| 20260904121625 | 77 | 141 | 5.0 | 7.0 | 0.00 | 0.00 | 0.00 | 91 | |
| 20260904121120 | 77 | 150 | 6.0 | 8.0 | 0.00 | 0.00 | 0.00 | 91 | |
| 20260904120617 | 77 | 116 | 5.0 | 6.0 | 0.00 | 0.00 | 0.00 | 91 | |
| 20260904120113 | 78 | 137 | 5.0 | 6.0 | 0.00 | 0.00 | 0.00 | 90 | |
| 20260904115608 | 78 | 143 | 4.0 | 8.0 | 0.00 | 0.00 | 0.00 | 90 | |
| 20260904115102 | 78 | 148 | 4.0 | 6.0 | 0.00 | 0.00 | 0.00 | 90 | |
| 20260904114556 | 78 | 139 | 4.0 | 9.0 | 0.00 | 0.00 | 0.00 | 90 | |
| 20260904114056 | 78 | 153 | 4.0 | 6.0 | 0.00 | 0.00 | 0.00 | 90 | |
| 20260904113551 | 78 | 127 | 8.0 | 9.0 | 0.00 | 0.00 | 0.00 | 90 | |
| 20260904113050 | 78 | 124 | 8.0 | 9.0 | 0.00 | 0.00 | 0.00 | 90 | |
| 20260904112546 | 78 | 127 | 3.0 | 5.0 | 0.00 | 0.00 | 0.00 | 90 | |
| 20260904112042 | 78 | 124 | 4.0 | 6.0 | 0.00 | 0.00 | 0.00 | 90 | |
| 20260904111537 | 78 | 145 | 3.0 | 6.0 | 0.00 | 0.00 | 0.00 | 89 | |
| 20260904111033 | 78 | 135 | 3.0 | 6.0 | 0.00 | 0.00 | 0.00 | 89 | |
| 20260904110532 | 78 | 129 | 4.0 | 5.0 | 0.00 | 0.00 | 0.00 | 89 | |
| 20260904110028 | 78 | 176 | 5.0 | 7.0 | 0.00 | 0.00 | 0.00 | 89 | |
| 20260904105522 | 78 | 178 | 4.0 | 6.0 | 0.00 | 0.00 | 0.00 | 90 | |
| 20260904105017 | 78 | 169 | 4.0 | 9.0 | 0.00 | 0.00 | 0.00 | 90 | |
| 20260904104513 | 78 | 179 | 7.0 | 8.0 | 0.00 | 0.00 | 0.00 | 90 |